EHI
0 0 0 0 0 0 0 0 0 0 0 0 0 0 0 0 0 0 0 0 0 5 26 56 71 66 53 45 43 42 39 36 31 27 24 20 16 13 12 10 7 4 2 1 0 0 0 0 0
0 0 0 0 0 0 0 0 0 0 0 0 0 0 0 0 0 0 0 0 0 6 26 54 71 67 54 44 40 39 37 33 29 25 21 17 14 13 11 9 6 4 1 0 0 0 0 0 0
0 0 0 0 0 0 0 0 0 0 0 0 0 0 0 0 0 0 0 0 1 7 26 52 70 68 54 42 35 35 33 28 24 20 17 14 13 12 10 8 6 3 1 0 0 0 0 0 0
0 0 0 0 0 0 0 0 0 0 0 0 0 0 0 0 0 0 0 1 3 10 25 49 67 67 53 40 31 30 29 24 19 17 14 13 12 10 9 8 6 3 1 0 0 0 0 0 0
0 0 0 0 0 0 0 0 0 0 0 0 0 0 0 0 0 0 0 1 5 13 25 45 62 61 49 37 29 27 27 22 17 15 13 12 10 9 7 6 4 2 1 0 0 0 0 0 0
0 0 0 0 0 0 0 0 0 0 0 0 0 0 0 0 0 0 0 1 5 13 24 39 51 51 43 35 30 28 26 20 15 13 12 11 9 7 5 3 2 1 0 0 0 0 0 0 0
0 0 0 0 0 0 0 0 0 0 0 0 0 0 0 0 0 0 0 1 4 11 21 31 38 40 38 34 31 28 23 17 12 10 9 8 7 5 4 3 2 0 0 0 0 0 0 0 0
0 0 0 0 0 0 0 0 0 0 0 0 0 0 0 0 0 0 0 0 1 6 16 24 30 34 34 29 25 20 16 11 8 7 6 5 4 4 4 3 1 0 0 0 0 0 0 0 0
0 0 0 0 0 0 0 0 0 0 0 0 0 0 0 0 0 0 0 0 0 3 10 19 26 31 30 23 16 11 8 7 6 5 4 3 3 3 2 1 0 0 0 0 0 0 0 0 0
0 0 0 0 0 0 0 0 0 0 0 0 0 0 0 0 0 0 0 0 0 1 7 14 21 28 29 20 12 7 5 5 5 4 2 2 1 1 1 0 0 0 0 0 0 0 0 0 0
0 0 0 0 0 0 0 0 0 0 0 0 0 0 0 0 0 0 0 0 0 1 5 11 18 25 27 19 10 6 4 3 2 1 1 0 0 0 0 0 0 0 0 0 0 0 0 0 0
0 0 0 0 0 0 0 0 0 0 0 0 0 0 0 0 0 0 0 0 0 0 4 10 17 21 20 15 9 5 3 1 0 0 0 0 0 0 0 0 0 0 0 0 0 0 0 0 0
0 0 0 0 0 0 0 0 0 0 0 0 0 0 0 1 1 0 0 0 0 0 4 10 15 16 14 11 6 3 1 0 0 0 0 0 0 0 0 0 0 0 0 0 0 0 0 0 0
0 0 0 0 0 0 0 0 0 0 0 0 0 0 0 1 1 0 0 0 0 1 4 9 13 13 11 8 5 2 0 0 0 0 0 0 0 0 0 0 0 0 0 0 0 0 0 0 0
0 0 0 0 0 0 0 0 0 0 0 0 0 0 0 0 0 0 0 0 0 1 4 7 10 11 10 6 4 3 1 0 0 0 0 0 0 0 0 0 0 0 0 0 0 0 0 0 0
0 0 0 0 0 0 0 0 0 0 0 0 0 0 0 0 0 0 0 0 1 2 4 6 8 9 9 6 4 2 1 0 0 0 0 0 0 0 0 0 0 0 0 0 0 0 0 0 0
0 0 0 0 0 0 0 0 0 0 0 0 0 0 0 0 0 0 0 0 1 3 5 6 6 6 6 5 4 2 0 0 0 0 0 0 0 0 0 0 0 0 0 0 0 0 0 0 0
0 0 0 0 0 0 0 0 0 0 0 0 0 0 0 0 0 1 1 1 1 2 3 4 4 3 3 4 4 3 1 0 0 0 0 0 0 0 0 0 0 0 0 0 0 0 0 0 0
0 0 0 0 0 0 0 0 0 0 0 0 0 0 0 0 0 1 2 2 1 1 1 2 2 2 2 3 3 3 1 0 0 0 0 0 0 0 0 0 0 0 0 0 0 0 0 0 0
0 0 0 0 0 0 0 0 0 0 0 0 0 0 0 0 0 0 1 1 1 0 1 1 1 1 2 2 3 2 1 0 0 0 0 0 0 0 0 0 0 0 0 0 0 0 0 0 0
0 0 0 0 0 0 0 0 0 0 0 0 0 0 0 0 0 0 0 0 0 0 0 1 1 2 3 2 2 2 1 0 0 0 0 0 0 0 0 0 0 0 0 0 0 0 0 0 0
0 0 0 0 0 0 0 0 0 0 0 0 0 0 0 0 0 0 0 0 0 0 0 0 1 2 2 1 1 1 0 0 0 0 0 0 0 0 0 0 0 0 0 0 0 0 0 0 0
0 0 0 0 0 0 0 0 0 0 0 0 0 0 0 0 0 0 0 0 0 0 0 1 1 1 1 0 0 0 0 0 0 0 0 0 0 0 0 0 0 0 0 0 0 0 0 0 0
0 0 0 0 0 0 0 0 0 0 0 0 0 0 0 0 0 0 0 0 0 0 0 1 0 0 0 0 0 0 0 0 0 0 0 0 0 0 0 0 0 0 0 0 0 0 0 0 0
0 0 0 0 0 0 0 0 0 0 0 0 0 0 0 0 0 0 0 0 0 0 0 0 0 0 0 0 0 0 0 0 0 0 0 0 0 0 0 0 0 0 0 0 0 0 0 0 0
0 0 0 0 0 0 0 0 0 0 0 0 0 0 0 0 0 0 0 0 0 0 0 0 0 0 0 0 0 0 0 0 0 0 0 0 0 0 0 0 0 0 0 0 0 0 0 0 0
0 0 0 0 0 0 0 0 0 0 0 0 0 0 0 0 0 0 0 0 0 0 0 0 0 0 0 0 0 0 0 0 0 0 0 0 0 0 0 0 0 0 0 0 0 0 0 0 0
0 0 0 0 0 0 0 0 0 0 0 0 0 0 0 0 0 0 0 0 0 0 0 0 0 0 0 0 0 0 0 0 0 0 0 0 0 0 0 0 0 0 0 0 0 0 0 0 0
0 0 0 0 0 0 0 0 0 0 0 0 0 0 0 0 0 0 0 0 0 0 0 0 0 0 0 0 0 0 0 0 0 0 0 0 0 0 0 0 0 0 0 0 0 0 0 0 0
0 0 0 0 0 0 0 0 0 0 0 0 0 0 0 0 0 0 0 0 0 0 0 0 0 0 0 0 0 0 0 0 0 0 0 0 0 0 0 0 0 0 0 0 0 0 0 0 0
Wind_Speed
5 2 3 3 2 3 10 9 5 5 6 5 5 6 7 9 8 7 2 8 9 14 17 20 23 23 22 22 21 20 20 19 19 19 19 19 18 18 17 17 17 16 16 16 16 17 17 17 16
0 3 3 3 5 10 11 9 10 10 6 1 2 4 4 8 6 4 2 7 11 14 15 17 22 23 23 22 21 21 20 20 19 19 19 18 18 17 17 17 17 17 17 16 16 16 16 16 16
1 2 3 4 9 16 10 6 13 11 7 3 2 3 5 6 4 5 5 9 12 13 13 16 23 23 23 23 22 21 21 20 20 19 18 18 18 17 17 17 17 17 17 16 16 16 16 15 15
1 1 2 8 21 17 9 4 4 5 5 6 4 6 6 5 3 4 6 11 14 13 12 16 23 24 23 22 22 21 21 21 20 19 18 18 17 17 17 17 17 16 16 16 15 15 15 15 15
1 3 8 15 24 12 7 5 2 3 3 3 4 5 6 3 1 4 9 13 15 14 12 15 22 24 23 23 22 21 21 20 20 19 18 18 18 17 17 16 16 16 16 16 15 14 14 14 14
2 4 12 21 23 12 7 7 5 6 5 3 3 4 7 2 2 6 10 11 11 13 12 14 22 22 22 23 22 21 21 21 20 19 19 18 18 18 17 17 16 16 15 15 15 14 13 13 14
5 8 16 17 16 13 9 7 9 9 10 8 4 4 6 3 2 6 8 8 8 10 10 11 14 17 21 21 21 21 20 20 20 19 18 17 18 18 17 17 16 15 15 14 14 13 13 13 13
4 6 15 16 16 14 5 7 9 11 12 5 6 7 7 3 4 7 8 7 8 9 9 10 11 13 14 15 19 19 18 18 18 17 16 15 16 16 17 15 15 15 15 14 13 13 12 13 13
3 10 19 18 13 7 5 7 7 7 7 6 6 7 5 5 9 10 9 9 10 11 9 9 10 11 12 12 15 16 17 16 15 14 15 13 8 8 10 11 14 15 14 14 13 12 12 12 11
7 15 23 12 7 6 6 8 6 4 7 8 6 5 2 8 12 14 15 17 17 16 14 11 11 12 12 11 10 9 9 10 9 8 10 7 6 6 8 12 12 13 13 13 13 12 11 8 4
8 14 12 11 9 8 9 9 7 8 12 10 8 5 6 10 13 15 17 18 19 17 15 13 12 12 12 9 8 6 6 7 8 10 9 7 6 6 5 4 6 6 7 5 7 7 4 4 4
9 12 12 11 10 11 11 10 10 13 14 7 7 6 9 13 15 17 18 17 15 16 16 14 13 12 12 10 8 7 7 7 7 8 10 8 6 5 5 4 4 4 3 5 4 4 4 4 4
11 12 12 13 13 13 13 14 13 16 12 8 7 6 11 14 15 15 15 15 15 16 16 15 14 14 12 11 9 8 8 8 8 8 8 9 7 7 6 4 4 4 4 4 4 4 4 4 4
8 10 12 13 14 12 15 17 15 18 9 9 9 9 10 14 16 14 14 15 16 16 16 15 15 15 13 11 10 9 8 8 8 8 9 10 8 7 7 6 5 4 4 4 4 4 4 3 3
6 10 13 12 12 10 11 17 20 17 8 11 11 10 11 12 13 15 16 17 18 17 16 16 16 15 15 13 12 9 9 9 8 8 9 10 9 9 7 6 5 5 5 5 4 4 3 3 3
4 7 9 8 8 9 9 19 14 8 10 13 12 10 10 12 13 13 14 14 15 15 16 16 15 16 15 13 12 9 9 10 8 8 8 10 10 10 8 7 6 5 5 5 4 4 3 3 2
5 7 10 9 7 6 10 14 9 7 10 12 11 10 10 10 10 11 13 14 14 16 16 16 16 16 16 14 11 10 10 10 9 8 8 9 10 10 8 7 6 7 5 4 4 3 3 3 3
6 7 8 9 5 7 12 15 12 9 10 11 9 9 10 11 12 11 12 13 14 14 15 16 15 15 14 11 10 8 9 9 8 9 9 11 10 11 9 7 7 7 6 4 4 4 3 3 3
10 11 13 14 10 10 14 17 15 11 10 12 10 9 11 13 11 9 11 12 13 14 15 17 16 16 14 12 12 12 11 10 9 9 11 12 11 12 10 7 8 7 7 7 6 4 4 3 3
12 13 14 13 9 9 12 17 15 14 13 12 12 11 11 11 9 9 10 11 14 16 16 18 18 17 16 13 11 9 8 8 8 8 10 12 12 13 11 10 9 8 6 7 7 5 4 3 3
12 11 11 11 11 9 9 12 12 11 12 12 11 11 11 12 12 10 10 12 13 15 17 16 19 18 17 14 10 8 7 6 7 10 10 12 13 13 11 11 10 9 9 8 8 7 7 5 3
12 9 12 13 8 6 4 8 7 7 9 10 10 9 10 10 10 9 10 11 13 16 16 17 18 18 18 16 14 16 13 12 11 10 9 11 12 13 12 12 11 11 9 8 9 8 5 6 4
8 8 9 10 8 8 6 7 8 4 7 9 10 9 9 9 9 9 10 11 12 13 14 15 17 18 18 18 17 17 13 10 7 8 11 11 11 12 13 13 12 11 9 10 9 8 7 6 6
7 6 7 6 4 8 8 7 7 4 6 6 7 7 8 8 9 9 8 9 9 10 11 13 15 17 18 19 19 19 16 13 12 12 13 11 9 10 13 13 12 12 10 10 10 10 10 8 6
3 2 2 2 2 7 5 6 8 5 5 5 5 5 5 6 7 7 7 8 9 11 12 13 16 17 17 19 20 19 18 16 16 15 14 12 10 10 14 13 12 11 10 10 10 10 9 9 8
5 3 2 3 4 4 3 7 5 4 4 4 4 4 5 4 4 5 6 7 9 11 13 14 16 16 18 19 19 18 16 13 12 14 12 14 12 11 12 13 12 11 11 11 10 8 9 9 9
4 3 3 3 4 4 5 4 4 5 7 8 8 9 8 7 5 4 3 4 6 8 12 14 15 15 17 18 18 17 16 15 13 13 12 11 9 9 13 14 12 11 12 12 11 9 10 9 9
2 3 2 2 3 5 4 2 3 6 7 9 9 9 9 9 8 6 4 3 4 5 8 11 14 15 15 16 16 14 16 16 13 11 13 12 12 11 13 14 13 12 12 12 11 9 9 10 9
3 2 2 3 3 3 4 2 2 3 5 6 7 8 9 9 8 7 6 4 3 3 4 7 10 13 13 14 14 14 14 14 13 12 13 12 11 12 14 14 14 13 13 12 12 11 11 12 10
2 1 1 2 5 4 3 4 3 4 7 8 9 10 10 9 9 8 7 6 4 3 2 4 7 10 12 13 14 15 13 13 13 13 12 12 12 12 13 13 13 13 13 13 13 13 12 12 12
Wind_Direction
291 91 87 72 79 232 234 225 208 211 217 214 190 183 193 195 180 216 270 155 150 158 166 168 165 163 161 159 154 149 147 144 142 139 137 135 133 132 130 128 125 123 120 117 115 113 112 109 106
207 122 83 103 187 225 240 211 212 214 208 193 207 210 224 244 235 244 192 166 155 160 164 165 165 162 161 159 154 151 148 146 143 140 139 138 137 135 132 129 125 123 120 118 116 115 113 111 110
321 145 152 177 214 222 225 204 217 225 234 252 260 236 220 234 229 222 200 162 154 162 165 166 164 162 161 159 156 153 151 148 145 143 142 141 140 137 134 130 126 123 121 119 119 118 116 115 113
85 128 188 218 231 227 216 194 198 217 239 226 216 266 254 242 229 209 164 160 157 163 164 166 164 163 162 160 157 155 154 151 149 147 145 144 143 139 135 130 127 126 125 123 122 121 120 119 115
86 185 221 233 239 234 221 225 207 202 223 202 187 253 269 283 236 154 156 164 163 164 165 166 164 164 163 161 159 158 156 153 151 150 149 148 145 139 135 132 131 130 128 127 127 124 123 121 117
210 204 224 235 240 234 223 211 232 247 247 244 209 238 258 296 167 163 161 166 166 164 164 166 166 164 164 162 161 159 158 155 154 153 152 150 145 141 139 137 136 134 133 133 131 129 128 125 120
215 223 234 242 249 242 224 192 212 232 246 235 203 242 277 288 198 155 154 156 162 164 163 165 167 165 163 161 160 160 159 157 155 155 153 150 147 146 144 141 140 138 136 136 135 132 131 128 123
215 243 244 240 244 248 218 204 210 213 239 223 187 212 246 246 145 137 141 151 161 168 167 165 164 162 161 160 159 159 157 157 156 153 148 146 147 148 145 142 143 142 140 139 137 134 133 130 125
215 239 241 236 239 249 202 222 228 219 226 222 214 217 242 136 140 146 151 163 173 177 173 167 164 160 157 158 159 156 156 156 153 147 144 140 137 137 139 141 145 145 144 143 138 135 131 123 122
209 240 244 249 250 257 248 240 237 235 241 241 246 252 208 151 161 170 175 178 181 183 180 173 168 162 158 159 157 156 154 153 147 144 140 130 127 127 131 142 145 146 145 143 138 132 119 101 91
224 246 262 266 268 270 268 264 252 236 244 233 229 224 185 180 180 186 187 187 187 184 181 176 171 164 160 157 155 153 150 148 142 140 136 132 126 127 124 129 137 132 127 116 113 99 91 97 99
251 258 266 275 282 278 271 271 262 245 246 243 235 217 190 196 196 195 194 193 188 185 184 177 172 167 162 156 156 154 153 151 148 146 143 141 136 134 132 123 118 114 109 106 99 101 102 103 105
256 266 268 274 283 280 277 266 263 259 259 268 263 230 204 203 206 204 200 195 189 189 185 179 173 169 164 158 158 159 158 155 152 149 150 149 146 145 139 133 126 123 119 118 115 112 115 114 111
260 277 281 274 271 272 268 265 258 258 253 256 254 242 222 212 209 206 200 196 194 192 188 180 177 172 166 164 162 162 159 155 153 155 156 153 151 151 147 142 138 135 133 129 127 128 126 122 119
273 280 280 262 253 252 266 263 246 252 245 248 249 243 234 224 215 210 203 198 195 192 188 184 179 174 170 166 163 162 160 158 159 159 158 158 154 155 153 151 150 148 138 130 120 115 111 116 117
269 266 263 258 246 243 237 257 256 249 237 244 245 242 236 231 221 214 208 202 196 191 188 186 183 178 174 170 165 163 163 162 163 161 163 162 160 159 156 157 158 150 141 136 133 130 120 122 127
238 248 259 277 240 239 233 261 273 253 243 245 243 241 236 235 230 219 209 202 196 192 189 187 186 181 178 172 167 165 165 167 166 164 167 168 165 164 162 164 160 152 147 145 147 132 134 141 145
249 256 265 269 280 280 268 270 280 266 249 248 250 249 243 235 231 218 209 203 197 192 190 188 186 183 177 170 165 163 166 170 169 171 173 170 170 168 165 164 162 157 154 154 149 138 127 134 141
265 275 278 279 288 283 270 274 278 267 256 252 247 246 246 241 233 218 210 200 195 192 191 190 188 184 179 178 177 176 179 176 175 177 175 175 173 172 171 169 165 166 169 168 156 140 138 128 127
262 269 275 285 280 274 275 274 269 259 249 242 240 238 244 248 242 221 208 199 196 195 193 192 191 187 187 187 183 179 171 173 173 174 178 179 177 177 178 173 174 173 167 165 165 150 141 141 155
262 252 260 272 291 273 275 278 257 251 243 240 233 233 238 241 238 225 211 202 196 198 196 194 193 190 189 184 172 162 155 156 172 182 184 184 182 181 180 179 175 176 176 179 178 169 158 158 178
272 262 262 267 274 272 244 281 272 254 252 240 235 229 232 239 237 225 212 206 201 200 199 196 194 192 189 183 181 179 183 186 188 182 182 180 183 183 183 180 179 180 181 179 181 179 169 156 168
264 283 274 262 257 267 242 255 278 261 254 246 235 226 229 233 233 228 214 210 206 201 197 198 194 193 189 188 188 188 193 191 170 169 175 180 184 186 185 183 183 183 185 183 181 178 180 174 169
282 290 273 252 236 252 228 218 273 241 248 262 243 234 231 230 231 231 220 209 206 201 197 194 194 194 191 190 192 194 194 184 174 177 182 184 184 186 189 186 187 186 186 185 185 184 186 188 181
298 313 312 297 235 249 218 212 250 261 272 273 272 266 252 240 232 232 221 208 205 200 197 194 194 196 192 193 195 198 196 190 188 185 186 184 184 190 192 189 189 188 187 185 182 185 190 191 190
288 251 231 260 256 277 231 229 254 282 296 323 331 330 330 299 258 241 228 215 210 204 200 195 196 198 194 195 197 197 195 194 196 191 188 190 193 193 185 188 189 187 184 184 184 188 192 193 198
296 268 255 278 287 275 249 268 298 350 1 2 1 1 350 338 320 296 265 232 222 211 203 197 198 199 196 196 198 196 196 196 197 192 189 191 188 181 180 185 187 185 184 185 183 193 195 194 200
266 297 313 266 273 270 264 260 310 347 355 356 359 355 348 347 342 331 312 275 246 224 209 199 198 198 197 197 198 198 197 198 196 188 192 192 185 178 179 184 186 186 186 186 187 191 193 196 200
333 339 317 287 271 282 294 299 347 357 358 353 346 344 345 348 344 337 331 311 281 254 214 200 201 199 196 196 197 196 197 195 192 194 196 191 182 180 182 184 185 187 188 188 192 196 191 199 201
218 253 277 291 295 284 285 283 334 9 5 357 350 349 349 349 345 341 339 342 334 306 258 211 205 202 200 197 194 196 194 191 192 197 195 189 184 183 184 182 185 189 190 190 194 196 195 199 202